Location: Bu�n Treun
(12.1333°N, 108.3167°E)
Time: 10:59:23
(UTC+00:00)

BEESAT - Pass Details

Date: 01 October 2021
Orbit: 699 x 709 km, 98.6° (Epoch: 27 October)

Event Time Altitude Azimuth Distance (km) Brightness Sun altitude
Rises 13:06:54 0° 342° (NNW) 3,072 ? -37.5°
Reaches altitude 10° 13:10:08 10° 318° (NW) 2,155 ? -38.3°
Maximum altitude 13:12:37 14° 286° (WNW) 1,876 ? -38.9°
Drops below altitude 10° 13:15:06 10° 254° (WSW) 2,156 ? -39.5°
Sets 13:18:21 0° 230° (SW) 3,075 ? -40.3°
